This is the latest recevied weather packets stored in our database for station/object KF0EZB. If no packets are shown the sender has not sent any weather packets the latest 1 day(s).
| Time | Temp. | Humidity | Pressure | Rain* | Wind** | Luminosity | Snow |
|---|---|---|---|---|---|---|---|
| 1778015193 | 12.22° C | 52% | 1012.5 hPa | 0 mm | 1.79 m/s, 23° | 290 W/m² | - |
| 1778014890 | 11.67° C | 53% | 1012.4 hPa | 0 mm | 0.45 m/s, 47° | 253 W/m² | - |
| 1778014587 | 11.67° C | 53% | 1012.8 hPa | 0 mm | 2.24 m/s, 42° | 205 W/m² | - |
| 1778014285 | 11.67° C | 54% | 1012.9 hPa | 0 mm | 0.45 m/s, 16° | 168 W/m² | - |
| 1778013982 | 11.67° C | 53% | 1012.6 hPa | 0 mm | 0.45 m/s, 80° | 187 W/m² | - |
| 1778013679 | 11.67° C | 52% | 1012.6 hPa | 0 mm | 2.24 m/s, 56° | 183 W/m² | - |
| 1778013376 | 11.67° C | 53% | 1012.7 hPa | 0 mm | 1.34 m/s, 70° | 170 W/m² | - |
| 1778013073 | 12.78° C | 52% | 1012.6 hPa | 0 mm | 2.68 m/s, 79° | 324 W/m² | - |
| 1778012769 | 12.22° C | 53% | 1012.5 hPa | 0 mm | 1.34 m/s, 59° | 501 W/m² | - |
| 1778012465 | 12.78° C | 52% | 1012.7 hPa | 0 mm | 2.68 m/s, 95° | 415 W/m² | - |
| 1778012161 | 12.78° C | 52% | 1012.6 hPa | 0 mm | 2.68 m/s, 55° | 252 W/m² | - |
| 1778011860 | 13.33° C | 51% | 1012.8 hPa | 0 mm | 0.89 m/s, 68° | 501 W/m² | - |
| 1778011557 | 13.33° C | 52% | 1012.6 hPa | 0 mm | 0.45 m/s, 59° | 555 W/m² | - |
| 1778011254 | 13.33° C | 51% | 1012.8 hPa | 0 mm | 3.58 m/s, 39° | 373 W/m² | - |
| 1778010950 | 13.33° C | 52% | 1012.9 hPa | 0 mm | 2.24 m/s, 33° | 390 W/m² | - |
| 1778010648 | 13.89° C | 52% | 1013.1 hPa | 0 mm | 2.24 m/s, 71° | 343 W/m² | - |
| 1778010344 | 13.33° C | 52% | 1012.9 hPa | 0 mm | 2.24 m/s, 96° | 473 W/m² | - |
| 1778010040 | 13.89° C | 50% | 1012.8 hPa | 0 mm | 3.13 m/s, 44° | 486 W/m² | - |
| 1778009737 | 13.89° C | 51% | 1013.1 hPa | 0 mm | 0.45 m/s, 110° | 475 W/m² | - |
| 1778009435 | 15° C | 49% | 1012.9 hPa | 0 mm | 2.24 m/s, 53° | 649 W/m² | - |
| 1778009133 | 14.44° C | 50% | 1012.9 hPa | 0 mm | 0.89 m/s, 52° | 590 W/m² | - |
| 1778008830 | 13.33° C | 50% | 1012.7 hPa | 0 mm | 0.45 m/s, 75° | 556 W/m² | - |
| 1778008528 | 14.44° C | 48% | 1012.8 hPa | 0 mm | 2.68 m/s, 59° | 396 W/m² | - |
| 1778008226 | 14.44° C | 49% | 1012.9 hPa | 0 mm | 0.45 m/s, 99° | 691 W/m² | - |
| 1778007920 | 13.89° C | 50% | 1012.8 hPa | 0 mm | 1.34 m/s, 32° | 528 W/m² | - |
* Rain latest hour (hover to see other rain measurements)
** Current wind speed in m/s (hover to see current wind gust speed)